Weather History for Milwaukee, WI

Change the Weather History Date:

Tuesday, January 8, 2013

  Actual Average Record
Temperature  
Mean Temperature 33 °F 22 °F  
Max Temperature 39 °F 29 °F 57 °F (1965)
Min Temperature 27 °F 16 °F -23 °F (1942)
Degree Days  
Heating Degree Days 32 43  
Month to date heating degree days 339  
Since 1 July heating degree days 2899  
Cooling Degree Days 0 0  
Month to date cooling degree days 0  
Year to date cooling degree days 0  
Moisture  
Dew Point 27 °F    
Average Humidity 75    
Maximum Humidity 89    
Minimum Humidity 57    
Precipitation  
Precipitation 0.00 in 0.06 in 1.15 in (1998)
Month to date precipitation 0.48  
Year to date precipitation 0.48  
Snow  
Snow 0.00 in 0.50 in 11.60 in (1998)
Month to date snowfall 3.7  
Since 1 July snowfall 17.0  
Snow Depth -    
Sea Level Pressure  
Sea Level Pressure 30.08 in    
Wind  
Wind Speed 9 mph (SSW)    
Max Wind Speed 15 mph    
Max Gust Speed 22 mph    
Visibility 8 miles    
Events      
T = Trace of Precipitation, MM = Missing Value Source: NWS Daily Summary

Daily Weather History Graph

Daily Weather History Graph

Search for Another Location

Airport:

Trip Planner

Search our weather history database for the weather conditions in past years. The results will help you decide how hot, cold, wet, or windy it might be!

Date:

Astronomy

Jan. 08, 2013 Rise Set
Actual Time 7:22 AM CST 4:34 PM CST
Civil Twilight 6:50 AM CST 5:06 PM CST
Nautical Twilight 6:15 AM CST 5:42 PM CST
Astronomical Twilight 5:40 AM CST 6:16 PM CST
Moon 3:54 AM CST (1/8) 1:37 PM CST (1/8)
Length of Visible Light 10h 16m
Length of Day
9h 12m
Waning Crescent, 13% of the Moon is Illuminated
Jan 8
Waning Crescent
Jan 11
New
Jan 18
First Quarter
Jan 26
Full
Feb 3
Last Quarter

Hourly Weather History & Observations

Time (CST) Temp. Windchill Dew Point Humidity Pressure Visibility Wind Dir Wind Speed Gust Speed Precip Events Conditions
12:52 AM 30.9 °F 22.2 °F 26.1 °F 82% 30.10 in 6.0 mi SW 10.4 mph - N/A   Haze
1:52 AM 30.0 °F 21.1 °F 26.1 °F 85% 30.10 in 6.0 mi SSW 10.4 mph - N/A   Mostly Cloudy
2:52 AM 30.0 °F 24.1 °F 26.1 °F 85% 30.10 in 6.0 mi SW 5.8 mph - N/A   Scattered Clouds
3:52 AM 28.9 °F 21.9 °F 25.0 °F 85% 30.09 in 6.0 mi SW 6.9 mph - N/A   Scattered Clouds
4:52 AM 28.0 °F 22.8 °F 25.0 °F 88% 30.11 in 6.0 mi SW 4.6 mph - N/A   Partly Cloudy
5:52 AM 28.0 °F 22.8 °F 24.1 °F 85% 30.11 in 6.0 mi WSW 4.6 mph - N/A   Partly Cloudy
6:52 AM 27.0 °F 20.5 °F 24.1 °F 89% 30.12 in 6.0 mi SW 5.8 mph - N/A   Partly Cloudy
7:52 AM 28.0 °F 19.3 °F 24.1 °F 85% 30.14 in 5.0 mi SW 9.2 mph - N/A   Scattered Clouds
8:52 AM 28.9 °F 21.1 °F 24.1 °F 82% 30.15 in 5.0 mi SW 8.1 mph - N/A   Haze
9:52 AM 30.9 °F 22.2 °F 25.0 °F 79% 30.14 in 6.0 mi SW 10.4 mph - N/A   Haze
10:52 AM 35.1 °F 28.6 °F 26.1 °F 70% 30.13 in 7.0 mi SW 8.1 mph - N/A   Mostly Cloudy
11:52 AM 37.0 °F 31.0 °F 28.0 °F 70% 30.11 in 7.0 mi South 8.1 mph - N/A   Mostly Cloudy
12:52 PM 37.9 °F 33.5 °F 28.9 °F 70% 30.09 in 9.0 mi South 5.8 mph - N/A   Mostly Cloudy
1:52 PM 39.9 °F 33.9 °F 28.9 °F 65% 30.09 in 10.0 mi South 9.2 mph - N/A   Mostly Cloudy
2:52 PM 39.0 °F 34.0 °F 28.9 °F 67% 30.08 in 8.0 mi SSE 6.9 mph - N/A   Mostly Cloudy
3:52 PM 39.0 °F 32.8 °F 28.9 °F 67% 30.08 in 8.0 mi South 9.2 mph - N/A   Mostly Cloudy
4:52 PM 37.0 °F 30.4 °F 30.0 °F 76% 30.06 in 8.0 mi SSE 9.2 mph - N/A   Mostly Cloudy
5:52 PM 37.0 °F 29.8 °F 30.0 °F 76% 30.05 in 8.0 mi South 10.4 mph - N/A   Mostly Cloudy
6:52 PM 37.4 °F 29.3 °F 30.2 °F 75% 30.02 in 8.0 mi South 12.7 mph - N/A   Scattered Clouds
7:52 PM 37.0 °F 28.1 °F 28.9 °F 73% 30.02 in 9.0 mi South 15.0 mph 21.9 mph N/A   Mostly Cloudy
8:52 PM 37.0 °F 31.6 °F 28.9 °F 73% 30.02 in 10.0 mi SSW 6.9 mph - N/A   Mostly Cloudy
9:52 PM 37.9 °F 29.6 °F 28.9 °F 70% 30.02 in 10.0 mi SSW 13.8 mph - N/A   Mostly Cloudy
10:52 PM 37.9 °F 30.5 °F 28.0 °F 68% 29.99 in 10.0 mi SSW 11.5 mph - N/A   Mostly Cloudy
11:52 PM 37.9 °F 30.5 °F 28.0 °F 68% 29.97 in 10.0 mi SW 11.5 mph - N/A   Mostly Cloudy